Location: Laterina
(43.5167°N, 11.7167°E)
Time: 23:04:44
(UTC+00:00)

Cosmos 1125 Rocket - Pass Details

Date: 21 June 2021
Orbit: 757 x 780 km, 74.0° (Epoch: 29 July)

Event Time Altitude Azimuth Distance (km) Brightness Sun altitude
Rises 23:51:44 0° 352° (N) 3,244 8.0 -22.5°
Reaches altitude 10° 23:54:59 10° 13° (NNE) 2,319 7.1 -22.4°
Maximum altitude 23:58:22 17° 53° (NE) 1,881 6.1 -22.3°
Drops below altitude 10° 00:01:44 10° 93° (E) 2,320 6.1 -22.2°
Sets 00:04:58 0° 113° (ESE) 3,247 6.6 -22.1°
